Location: *
(49.9853°N, 3.5569°E)
Time: 06:24:45
(UTC+00:00)

Cosmos 405 Rocket - Pass Details

Date: 15 December 2019
Orbit: 490 x 554 km, 81.3° (Epoch: 20 January)

Event Time Altitude Azimuth Distance (km) Brightness Sun altitude
Rises 18:20:27 0° 342° (NNW) 2,582 6.4 -23.8°
Reaches altitude 10° 18:22:37 10° 337° (NNW) 1,697 5.5 -24.2°
Maximum altitude 18:26:10 45° 264° (W) 683 3.6 -24.7°
Drops below altitude 10° 18:29:44 10° 191° (S) 1,699 5.5 -25.3°
Sets 18:31:54 0° 185° (S) 2,586 6.4 -25.7°
